Weather History for KGCC - July, 2013

Change the Weather History Date:

Wednesday, July 17, 2013

  Actual Average Record
Temperature  
Mean Temperature 74 °F 72 °F  
Max Temperature 89 °F 87 °F 102 °F (1957)
Min Temperature 59 °F 57 °F 41 °F (1982)
Degree Days  
Heating Degree Days 0 0  
Month to date heating degree days 0 14  
Since 1 June heating degree days 117 156  
Since 1 July heating degree days 0 14  
Cooling Degree Days 9 7  
Month to date cooling degree days 139 104  
Year to date cooling degree days 193 172  
Since 1 June cooling degree days 185 164  
Growing Degree Days 24 (Base 50)    
Moisture  
Dew Point 58 °F    
Average Humidity 64    
Maximum Humidity 100    
Minimum Humidity 27    
Precipitation  
Precipitation 0.00 in 0.07 in 1.10 in (1937)
Month to date precipitation 2.22 0.94  
Year to date precipitation 11.77 8.81  
Sea Level Pressure  
Sea Level Pressure 30.09 in    
Wind  
Wind Speed 4 mph (ESE)    
Max Wind Speed 15 mph    
Max Gust Speed 22 mph    
Visibility 7 miles    
Events Fog    
T = Trace of Precipitation, MM = Missing Value Source: NWS Daily Summary

Daily Weather History Graph

Daily Weather History Graph

Search for Another Location

Airport or City:

Trip Planner

Search our weather history database for the weather conditions in past years. The results will help you decide how hot, cold, wet, or windy it might be!

Date:

Astronomy

Jul. 17, 2013 Rise Set
Actual Time 5:34 AM MDT 8:41 PM MDT
Civil Twilight 4:59 AM MDT 9:16 PM MDT
Nautical Twilight 4:14 AM MDT 10:01 PM MDT
Astronomical Twilight 3:19 AM MDT 10:56 PM MDT
Moon 3:31 PM MDT (7/17) 12:47 AM MDT (7/17)
Length of Visible Light 16h 17m
Length of Day
15h 07m
Waxing Gibbous, 68% of the Moon is Illuminated
Jul 17
Waxing Gibbous
Jul 22
Full
Jul 29
Last Quarter
Aug 6
New
Aug 14
First Quarter

Hourly Weather History & Observations

Time (MDT) Temp. Heat Index Dew Point Humidity Pressure Visibility Wind Dir Wind Speed Gust Speed Precip Events Conditions
12:20 AM 68.0 °F - 62.6 °F 83% 30.22 in 10.0 mi NNE 8.1 mph - N/A   Mostly Cloudy
12:30 AM 68.0 °F - 62.6 °F 83% 30.22 in 10.0 mi NE 5.8 mph - N/A   Scattered Clouds
12:40 AM 68.0 °F - 62.6 °F 83% 30.22 in 10.0 mi NNE 5.8 mph - N/A   Mostly Cloudy
12:53 AM 68.0 °F - 64.0 °F 87% 30.08 in 10.0 mi NE 5.8 mph - N/A   Mostly Cloudy
1:12 AM 66.2 °F - 62.6 °F 88% 30.21 in 10.0 mi ENE 5.8 mph - N/A   Scattered Clouds
1:53 AM 64.9 °F - 62.1 °F 90% 30.07 in 8.0 mi Calm Calm - N/A   Clear
2:53 AM 61.0 °F - 59.0 °F 93% 30.08 in 4.0 mi Calm Calm - N/A   Clear
3:07 AM 60.8 °F - 59.0 °F 94% 30.21 in 1.8 mi Calm Calm - N/A   Clear
3:20 AM 60.8 °F - 60.8 °F 100% 30.21 in 0.8 mi West 3.5 mph - N/A   Clear
3:34 AM 60.8 °F - 59.0 °F 94% 30.21 in 1.2 mi West 3.5 mph - N/A   Clear
3:39 AM 59.0 °F - 57.2 °F 94% 30.21 in 3.0 mi Calm Calm - N/A   Clear
3:53 AM 60.1 °F - 59.0 °F 96% 30.08 in 3.0 mi Calm Calm - N/A   Clear
4:08 AM 60.8 °F - 59.0 °F 94% 30.23 in 2.5 mi Calm Calm - N/A   Partly Cloudy
4:10 AM 60.8 °F - 59.0 °F 94% 30.23 in 1.0 mi Calm Calm - N/A   Mist
4:12 AM 59.0 °F - 57.2 °F 94% 30.23 in 0.5 mi Calm Calm - N/A Fog Fog
4:53 AM 61.0 °F - 60.1 °F 97% 30.09 in 0.5 mi Calm Calm - N/A Fog Fog
5:53 AM 61.0 °F - 61.0 °F 100% 30.10 in 0.2 mi Calm Calm - N/A Fog Fog
6:53 AM 62.1 °F - 61.0 °F 96% 30.10 in 0.2 mi Calm Calm - N/A Fog Fog
7:37 AM 62.6 °F - 62.6 °F 100% 30.23 in 1.0 mi Calm Calm - N/A   Mist
7:43 AM 62.6 °F - 62.6 °F 100% 30.23 in 3.0 mi Calm Calm - N/A   Mostly Cloudy
7:53 AM 62.1 °F - 60.1 °F 93% 30.11 in 10.0 mi SE 3.5 mph - N/A   Scattered Clouds
8:53 AM 72.0 °F - 57.0 °F 59% 30.09 in 10.0 mi South 8.1 mph - N/A   Clear
9:53 AM 75.9 °F - 55.9 °F 50% 30.07 in 10.0 mi SSE 8.1 mph - N/A   Clear
10:53 AM 80.1 °F 80.0 °F 54.0 °F 40% 30.05 in 10.0 mi SE 9.2 mph - N/A   Clear
11:53 AM 82.0 °F 81.3 °F 54.0 °F 38% 30.04 in 10.0 mi ESE 5.8 mph - N/A   Clear
12:53 PM 84.0 °F 82.6 °F 54.0 °F 35% 30.03 in 10.0 mi SE 12.7 mph 18.4 mph N/A   Clear
1:53 PM 86.0 °F 84.0 °F 53.1 °F 32% 30.01 in 10.0 mi SSE 5.8 mph - N/A   Clear
2:53 PM 86.0 °F 84.0 °F 53.1 °F 32% 30.01 in 10.0 mi South 9.2 mph - N/A   Clear
3:53 PM 88.0 °F - 52.0 °F 29% 29.99 in 10.0 mi ESE 6.9 mph - N/A   Clear
4:53 PM 89.1 °F - 52.0 °F 28% 29.97 in 10.0 mi Variable 4.6 mph - N/A   Clear
5:53 PM 88.0 °F 85.7 °F 53.1 °F 30% 29.95 in 10.0 mi ESE 4.6 mph - N/A   Clear
6:53 PM 88.0 °F 85.9 °F 54.0 °F 31% 29.94 in 10.0 mi ESE 3.5 mph - N/A   Clear
7:53 PM 82.9 °F 82.0 °F 55.0 °F 38% 29.94 in 10.0 mi East 8.1 mph - N/A   Clear
8:53 PM 72.0 °F - 57.9 °F 61% 29.94 in 10.0 mi Calm Calm - N/A   Clear
9:53 PM 71.1 °F - 55.9 °F 59% 29.95 in 10.0 mi WSW 3.5 mph - N/A   Clear
10:53 PM 73.0 °F - 55.0 °F 53% 29.94 in 10.0 mi South 3.5 mph - N/A   Clear
11:53 PM 72.0 °F - 57.9 °F 61% 29.92 in 10.0 mi Calm Calm - N/A   Clear